Flag for Germany Weather past 2 weeks in Winsen (Luhe), Lower Saxony, Germany

Now
50 °F

Partly sunny.


Feels Like: 44 °F
Forecast: 43 / 66 °F
Wind: 17 mph from Southwest

Location: Hamburg-Finkenwerder

Current Time: May 30, 2015 at 9:30:50 AM

Latest Report: May 30, 2015 at 8:50 AM


Visibility: N/A

Pressure: 29.74 "Hg

Humidity: 76%

Dew point: 43 °F

Location of Winsen (Luhe)Location

Historic Weather in Winsen (Luhe) — Graph

°F

Winsen (Luhe) temperature yesterday

Maximum temperature yesterday: 63 °F (at 2:50 PM)
Minimum temperature yesterday: 43 °F (at 6:20 AM)
Average temperature yesterday: 57 °F

Past Weeks' High & Low Weather Summary

 TemperatureHumidityPressure
High66 °F (May 22, 2:20 PM)100% (May 16, 5:20 PM)30.30 "Hg (May 16, 5:20 PM)
Low43 °F (May 21, 6:20 AM)42% (May 29, 2:50 PM)29.59 "Hg (May 19, 6:20 AM)
Average55 °F71%29.98 "Hg
* Reported May 15 7:20 AM — May 30 7:50 AM, Winsen (Luhe), Weather by CustomWeather, © 2015

Note: Actual official high and low records may vary slightly from our data, if they occured in-between our weather recording intervals... More about our weather records

Advertising

Winsen (Luhe) weather history for previous 24 hours

 ConditionsComfort  
Time TempWeatherWind HumidityBarometerVisibility
7:50 AM
Sat, May 30
48 °FPartly sunny.16 mph82%29.71 "HgN/A
7:20 AM48 °FPartly sunny.18 mph82%29.71 "HgN/A
8:20 PM
Fri, May 29
55 °FSunny.15 mph82%29.65 "Hg10 mi
7:50 PM61 °FSunny.12 mph45%29.65 "Hg10 mi
7:20 PM61 °FSunny.17 mph48%29.65 "Hg10 mi
6:50 PM61 °FScattered showers. Broken clouds.6 mph63%29.65 "HgN/A
6:20 PM61 °FSprinkles. Partly sunny.12 mph59%29.65 "HgN/A
5:50 PM61 °FScattered showers. Broken clouds.12 mph59%29.68 "HgN/A
5:20 PM63 °FPassing clouds.9 mph45%29.68 "HgN/A
4:50 PM63 °FPassing clouds.12 mph42%29.68 "HgN/A
4:20 PM63 °FPassing clouds.12 mph42%29.71 "HgN/A
3:50 PM63 °FPassing clouds.13 mph45%29.71 "HgN/A
3:20 PM63 °FPassing clouds.13 mph42%29.74 "HgN/A
2:50 PM63 °FPassing clouds.12 mph42%29.74 "HgN/A
2:20 PM61 °FPassing clouds.12 mph45%29.77 "HgN/A
1:50 PM61 °FPassing clouds.15 mph45%29.77 "HgN/A
1:20 PM59 °FPartly sunny.12 mph48%29.80 "HgN/A
12:50 PM59 °FPassing clouds.12 mph48%29.80 "HgN/A
12:20 PM59 °FPassing clouds.12 mph48%29.83 "HgN/A
11:50 AM59 °FPassing clouds.10 mph51%29.83 "HgN/A
11:20 AM57 °FPassing clouds.10 mph55%29.83 "HgN/A
10:50 AM57 °FPassing clouds.9 mph63%29.86 "HgN/A
10:20 AM55 °FPassing clouds.10 mph67%29.86 "HgN/A
9:50 AM54 °FPassing clouds.9 mph72%29.86 "HgN/A
9:20 AM54 °FPassing clouds.7 mph72%29.86 "HgN/A
Weather by CustomWeather, © 2015

See weather overviewHow to use our weather pages